Location: Unspecified
(0.0000°N, 0.0000°E)
Time: 20:09:33
(UTC+00:00)

FLOCK 1C 5 - Visible Passes

Search period start: 12 January 2025 00:00
Search period end: 22 January 2025 00:00
Orbit: 402 x 413 km, 98.1° (Epoch: 12 January)

Date Brightness Start Highest point End Pass type
(mag) Time Alt. Az. Time Alt. Az. Time Alt. Az.
12 Jan ? 05:16:13 10° ENE 05:17:55 14° ESE 05:19:37 10° SE visible
14 Jan ? 05:12:47 10° E 05:13:46 11° ESE 05:14:45 10° ESE visible
19 Jan ? 05:42:07 10° NE 05:45:00 35° ESE 05:47:53 10° S visible
19 Jan ? 18:51:08 10° WSW 18:51:52 11° WSW 18:52:35 10° W visible
21 Jan ? 05:34:58 10° NE 05:37:32 24° ESE 05:40:06 10° SSE visible
21 Jan ? 18:42:15 10° SW 18:44:09 15° WSW 18:46:02 10° WNW visible
